STARLINK-2673, 48649

Orbit data source: Space-Track

STARLINK-2673, 48649 is a payload satellite owned by SpaceX/Seattle (US) in LEO that was launched on Wed, 26 May 2021 UTC via an FALCON 9 launch vehicle from the Air Force Eastern Test Range (AFETR). Payload-class satellites include a variety of spacecraft equipped with specific instruments for various scientific and technological missions. These include communications satellites like Starlink; space stations such as the ISS; scientific satellites like the Hubble; Earth observation satellites from companies like Planet Labs, Umbra, and HawkEye 360; GPS; miniature CubeSats for education and research; and military/defense satellites.

Loading next visibility...
Identifier
48649, 2021-044M
Orbit
LEO
Country
Flag of USUS
Related business
Manufacturer
SpaceX/Seattle
Mission
Operational Commercial Communications
Bus & Motor
STARLINK, Unknown motor
Mass
260 kg wet, ~248 kg dry
Launch date (UTC)
2021-05-26 (5 years ago)
Launch vehicle
FALCON 9
Launch site
Air Force Eastern Test Range (AFETR)
Object type
Payload
Rocket body
Debris
Shape & HBR
Box + 1 Pan, 10.1 m
Radar Cross Section
13.562 m², Large (>1 m²)

Expand to show TLE details & history
Last TLE update: 3 days ago

TLE from 3 days ago
0 STARLINK-2673
1 48649U 21044M   26170.91281433  .00001322  00000-0  54369-4 0  9998
2 48649  53.1598 358.2551 0001126  92.0744 268.0386 15.31698352279485
Epoch: 2026-06-19T21:54Z
TLE epoch observation values (Epoch: 2026-06-19T21:54:27.158Z)
Latitude
-0.00003°
Longitude
121.50694°
Altitude
471.672 km
Speed
7.631 km/s
True Right ascension
23h 53m 01s
True Declination
0° 00' 00"
Sunlit
Object was in daylight at epoch
Visualization orbit readout
Latitude
Unknown
Longitude
Unknown
Altitude
Unknown
Speed
Unknown
Apparent Right ascension
Unknown
Apparent Declination
Unknown
Sunlit
N/A
Visualization observer readout
Local Sidereal Time
21:39:39
Azimuth
Unknown
Elevation
Unknown
Doppler factor
Unknown
Orbital elements
Apogee altitude
471.773 km
Perigee altitude
470.23 km
Semi-major axis
6,849.139 km
Eccentricity
0.00011
Inclination
53.1598°
RAAN
358.2551°
Arg. of periapsis
92.0744°
True anomaly
268.0257°
Mean anomaly
268.0386°
Eccentric anomaly
268.03215°
Mean motion
3.82903 °/min
Orbital period
94.02 mins
BSTAR
0.000054369
Loading maneuver chart data...
Computing Atmospheric mass density...

Documentation

Showing up to 5 results
|